Duchifat 3
1 44854U 19089C   25083.81133930  .00071337  00000-0  18208-2 0  9990
2 44854  36.9459 120.6102 0005583 257.5515 102.4614 15.38381816291088
TO-108
1 44881U 19093C   25083.83827166  .00003793  00000-0  44632-3 0  9990
2 44881  97.7967 161.0904 0015142 121.1083 239.1620 14.85341246284681
FloripaSat 1
1 44885U 19093G   25083.79495176  .00017981  00000-0  15560-2 0  9992
2 44885  97.8174 171.3067 0012311 103.7701 256.4892 14.97155750285251
RS-44
1 44909U 19096E   25083.54697938  .00000048  00000-0  13779-3 0  9992
2 44909  82.5166 278.4716 0218432 115.6057 246.7792 12.79739492244837
UPMSat 2
1 46276U 20061E   25082.72629766  .00083905  00000-0  11298-2 0  9994
2 46276  97.2536 155.0872 0001709 159.1986 200.9339 15.57568132253305
SALSAT
1 46495U 20068K   25083.89461869  .00019934  00000-0  89717-3 0  9994
2 46495  97.8540  58.4957 0014090  72.2933 287.9838 15.21042893246867
CubeSX-Sirius-HSE
1 47951U 21022V   25083.88979165  .00189024  00000-0  21253-2 0  9993
2 47951  97.4265 352.7353 0006914 173.8650 186.2694 15.61949659221757
CubeSX-HSE
1 47952U 21022W   25083.85616076  .00189200  00000-0  20813-2 0  9997
2 47952  97.4273 352.9126 0007215 168.3724 191.7702 15.62512982221761
GRBAlpha
1 47959U 21022AD  25083.82317993  .00180445  00000-0  20090-2 0  9996
2 47959  97.4257 353.0190 0006897 173.4437 186.6913 15.62232474220587
Orbicraft-Zorkiy
1 47960U 21022AE  25083.78712211  .00583943  00000-0  24690-2 0  9995
2 47960  97.4199 356.9109 0008454 148.9652 211.2118 15.83901457221493
TUBIN
1 48900U 21059X   25083.84648866  .00075518  00000-0  12394-2 0  9993
2 48900  97.6698 247.3195 0004255 173.5154 186.6154 15.52160784208102
LEDSAT
1 49069U 21073D   25083.49015960  .00097424  00000-0  17457-2 0  9995
2 49069  97.3959 162.4178 0010453   0.2357 359.8897 15.49543196199455
CUTE
1 49263U 21088D   25082.65300575  .00027046  00000-0  60797-3 0  9992
2 49263  97.4571 156.8248 0009965 160.6562 199.5065 15.43261143192397
TeikyoSat 4
1 49396U 21102B   25083.68331718  .00004919  00000-0  33059-3 0  9998
2 49396  97.4207 124.8683 0013666  43.6888 316.5419 15.07137043184961
Z-Sat
1 49399U 21102E   25083.88579150  .00011297  00000-0  63264-3 0  9995
2 49399  97.3913 127.7075 0018521  15.4027 344.7765 15.13439353185370
KOSEN 1
1 49402U 21102H   25083.56378196  .00015591  00000-0  75018-3 0  9993
2 49402  97.3822 130.2561 0015746 354.2760   5.8292 15.18756229185590
HO-113
1 50466U 21131B   25083.88163572  .00002231  00000-0  71255-3 0  9998
2 50466  98.5086 173.6271 0004207  23.2581 336.8798 14.40659503170403
IRIS-A
1 51044U 22002BN  25082.95193267  .00173589  00000-0  15959-2 0  9993
2 51044  97.3350 159.3022 0002547 142.4863 217.6576 15.67137338177611
Foresail-1
1 52766U 22057AL  25083.64239853  .00156621  00000-0  15223-2 0  9996
2 52766  97.6010 227.8750 0006280 218.7869 141.2940 15.65779331157752
SNUGLITE 2
1 52899U 22065F   25083.34674288  .00004308  00000-0  85140-3 0  9994
2 52899  98.1543 226.1395 0007344   4.3248 355.8016 14.62880742145192
IO-117
1 53106U 22080B   25051.21822557 -.00000003  00000-0  00000+0 0  9995
2 53106  70.1434 106.3440 0008542  48.0089 312.1297  6.42557744 61200
UmKA 1 (RS40S)
1 57172U 23091G   25083.84858341  .00015221  00000-0  83848-3 0  9991
2 57172  97.5685 139.6562 0013860 235.4522 124.5402 15.14026539 95869
CubeBel-2 (EU11S)
1 57175U 23091K   25083.86237719  .00022214  00000-0  11168-2 0  9991
2 57175  97.5686 140.3938 0011736 244.0400 115.9625 15.17201874 95917
VERONIKA
1 58261U 23174F   25083.77723088  .00134127  00000-0  22348-2 0  9998
2 58261  97.4200 166.4598 0006119 307.3453  52.7241 15.51504710 76707
KAFASAT
1 58317U 23174BP  25083.77523395  .01097742  55511-3  30058-2 0  9998
2 58317  97.3999 171.2491 0010417 269.5200  90.4881 15.94052977 77041
ENSO
1 58470U 23185J   25083.88369074  .00081268  00000-0  16289-2 0  9999
2 58470  97.3817 157.0363 0006735 358.3812   1.7415 15.46406552 73148
EIRSAT-1
1 58472U 23185L   25083.85339365  .00118369  00000-0  19444-2 0  9997
2 58472  97.3798 157.9494 0005495 354.6075   5.5117 15.51966476 73204
SONATE-2
1 59112U 24043Q   25083.59800626  .00037125  00000-0  11917-2 0  9994
2 59112  97.5007 213.4709 0011476  31.3939 328.7985 15.32151371 58533
MO-122
1 60209U 24125G   25083.49666832  .00034761  00000-0  11012-2 0  9991
2 60209  97.2906 296.1089 0021381  56.4921 303.8361 15.32424504 40131
GRBBeta
1 60237U 24128C   25083.45533081  .00011412  00000-0  87092-3 0  9990
2 60237  61.9943 348.2885 0044664  40.8033 319.6387 15.01621566 38610
Curium One
1 60242U 24128H   25083.00530807  .00021861  00000-0  15758-2 0  9998
2 60242  61.9838 349.1535 0044439  36.1269 324.2810 15.03384397 38567
ROBUSTA-3A
1 60243U 24128J   25082.98610743  .00022682  00000-0  16529-2 0  9992
2 60243  61.9908 349.8084 0042825  33.9242 326.4574 15.03015886 38559
CatSat
1 60246U 24125J   25083.03165146  .00019659  00000-0  69367-3 0  9990
2 60246  97.2692 295.6704 0044470  12.5028 347.7304 15.28318560 38137
HYPERVIEW-1G (RS66S)
1 61772U 24199AP  25083.88240705  .00042636  00000-0  14012-2 0  9991
2 61772  97.3672 313.0519 0016506 106.1901 254.1158 15.31292548 65206
AO-123
1 61781U 24199AY  25083.88082626  .00016584  00000-0  62793-3 0  9990
2 61781  97.3679 312.6137 0018019 107.9906 252.3299 15.26840771 65172
ZIMSAT 2
1 61783U 24199BA  25083.87072734  .00062804  00000-0  18954-2 0  9995
2 61783  97.3662 313.2118 0017245 105.3009 255.0141 15.33902553 68363
POEM 4 (BGS ARPIT)
1 62461U 24253C   25083.70853757  .00715582  26927-3  94505-3 0  9998
2 62461  55.2130 212.2718 0001990 328.1374 109.3946 16.06294655 13298
HADES-R (SO-124)
1 62690U 25009CK  25082.18293529  .00084878  00000-0  36945-2 0  9999
2 62690  97.4143 163.6590 0001544 358.4585   1.6646 15.21874659 10197
HYDRA-T
1 62692U 25009CM  25083.69043973  .00070268  00000-0  30343-2 0  9998
2 62692  97.4139 165.1551 0001471 345.7211  14.3983 15.22220555 10424
